Regional Weather Roundup
Issued by NWS

Home | Current Version | Previous Version | Graphics & Text | Print | Product List | Glossary Off
Versions: 1 2 3 4 5 6 7 8 9 10 11 12 13 14 15 16 17 18 19 20 21 22 23 24 25 26 27 28 29 30 31 32 33 34 35 36 37 38 39 40 41 42 43 44 45 46 47 48 49 50

000
ASUS43 KMKX 270911
RWRWI

WISCONSIN REGIONAL WEATHER ROUNDUP
NATIONAL WEATHER SERVICE MILWAUKEE/SULLIVAN WI
400 AM CDT TUE SEP 27 2016

NOTE: "FAIR" INDICATES FEW OR NO CLOUDS BELOW 12,000 FEET WITH NO
SIGNIFICANT WEATHER AND/OR OBSTRUCTIONS TO VISIBILITY.

WIZ001-002-006>008-014>016-023>028-271000-
NORTHWEST WISCONSIN

CITY           SKY/WX    TMP DP  RH WIND       PRES   REMARKS
SUPERIOR ARPT  CLOUDY    52  45  75 W12G18    29.69F
ASHLAND        CLOUDY    51  46  83 W14       29.64F
HAYWARD        CLOUDY    51  42  71 W7        29.69F
SIREN          CLOUDY    53  41  64 W13G22    29.75F
CUMBERLAND     CLOUDY    50  41  71 W16       29.74F
RICE LAKE      CLOUDY    51  41  68 W10G18    29.76S
CHETEK         NOT AVBL
LADYSMITH      CLOUDY    52  42  68 W14G21    29.72S
EAU CLAIRE     CLOUDY    52  42  69 W14       29.76S
MENOMONIE      MOCLDY    52  41  66 W14       29.78S
NEW RICHMOND   CLEAR     47  40  76 W10       29.80S
OSCEOLA        CLEAR     50  41  71 W12       29.82F
$$

WIZ003>005-009-010-017-018-271000-
NORTH CENTRAL WISCONSIN

CITY           SKY/WX    TMP DP  RH WIND       PRES   REMARKS
MANITOWISH WTR NOT AVBL
ARBOR VITAE    RAIN      52  48  87 W10G17    29.63S
WOODRUFF       RAIN      52  48  87 W10G17    29.63S
RHINELANDER    CLOUDY    50  45  83 W18       29.64F
EAGLE RIVER    DRIZZLE   47  47  97 W10G16    29.60F
LAND O LAKES   DRIZZLE   48  46  95 W6        29.61S
PHILLIPS       CLOUDY    49  44  83 W6        29.66S
TOMAHAWK       DRIZZLE   50  43  77 W8G17     29.67S
MEDFORD        CLOUDY    50  41  71 W15G25    29.69S
MERRILL        CLOUDY    51  44  74 W10G16    29.68S
$$

WIZ029-030-035-036-043>047-271000-
CENTRAL WISCONSIN

CITY           SKY/WX    TMP DP  RH WIND       PRES   REMARKS
WAUSAU         CLOUDY    51  41  68 W13       29.68S
MOSINEE        CLOUDY    50  41  71 W13       29.71S
MARSHFIELD     CLOUDY    51  40  65 W13       29.72S
STEVENS POINT  CLOUDY    48  39  70 W12       29.72S
WAUPACA        CLOUDY    54  40  59 W10G17    29.72F
WAUTOMA        PTCLDY    50  40  68 W10       29.75F
WISC RAPIDS    MOCLDY    50  41  71 W12       29.75S
CAMP DOUGLAS   CLEAR     51  40  64 W14       29.76F
$$

WIZ011>013-019>022-031-037>040-048>050-271000-
NORTHEAST WISCONSIN

CITY           SKY/WX    TMP DP  RH WIND       PRES   REMARKS
ANTIGO         CLOUDY    49  43  80 W3        29.66S
SHAWANO        CLOUDY    55  42  62 W9        29.67F
OCONTO         NOT AVBL
STURGEON BAY   CLOUDY    56  43  61 W14G22    29.64F
GREEN BAY      CLOUDY    53  43  68 W10       29.68F
MANITOWOC      CLOUDY    53  42  66 SW7       29.70F
APPLETON       CLOUDY    52  37  58 W12       29.69F
CLINTONVILLE   NOT AVBL
OSHKOSH        PTCLDY    52  38  58 W8        29.72F
$$

WIZ032>034-041-042-053>061-271000-
SOUTHWEST WISCONSIN

CITY           SKY/WX    TMP DP  RH WIND       PRES   REMARKS
LA CROSSE      CLEAR     56  38  50 W16       29.81S
SPARTA         CLEAR     48  41  74 SW5       29.79F
VIROQUA        CLEAR     48  37  64 W9        29.82F
BOSCOBEL       CLEAR     52  38  58 S3        29.85F
PRAIRIE DU CHI CLEAR     51  35  54 W8        29.86S
PLATTEVILLE    CLEAR     48  39  71 W8        29.87S
$$

WIZ056-057-062-063-064-067-068-271000-
SOUTH CENTRAL WISCONSIN

CITY           SKY/WX    TMP DP  RH WIND       PRES   REMARKS
REEDSBURG      NOT AVBL
BARABOO/DELLS  CLEAR     50  37  59 W8        29.78F
LONE ROCK      CLEAR     50  39  66 W5        29.83F
MINERAL POINT  CLEAR     46  37  71 W5        29.85S
MADISON        CLEAR     53  37  54 VRB6      29.79F
MIDDLETON      NOT AVBL
WATERTOWN      CLEAR     50  40  67 SW7       29.78F
MONROE         CLEAR     52  36  54 W14       29.84F
JANESVILLE     CLEAR     52  36  54 W9        29.83S
$$

WIZ051-052-058>065-066-070>072-271000-
SOUTHEAST WISCONSIN

CITY           SKY/WX    TMP DP  RH WIND       PRES   REMARKS
MILWAUKEE      PTCLDY    54  38  54 SW13      29.78F
WAUKESHA       CLEAR     48  36  61 SW10      29.79F
MILWAUKEE/TIMM CLEAR     50  36  57 SW7       29.78F
RACINE         CLEAR     52  38  58 SW8       29.81F
BURLINGTON     CLEAR     50  37  60 W8        29.81F
KENOSHA        CLEAR     51  39  63 W13       29.81F
FOND DU LAC    CLEAR     50  39  66 SW7       29.74F
SHEBOYGAN      PTCLDY    49  40  71 SW10      29.73F
WEST BEND      CLEAR     50  37  62 W10G16    29.76F
JUNEAU         CLEAR     47  39  71 SW10      29.78F
$$

LSZ147-162-271000-
LAKE SUPERIOR

STATION/POSITION TIME  TEMP    WIND        PRES    WAVE
                       AIR SEA DIR/SP/G            HT/PER
                 (UTC) (F)     (DEG/KT/KT) (MB)    (FT/S)
W MID LAKE BUOY  0850   51 46  280/ 16/ 17  999.6R   5/ 6
DEVILS ISLAND    0800   52     260/ 19/ 21 1002.2F
SAXON HARBOR     0840   51     230/  9/ 14 1003.0F
$$

LMZ867-665-643>646-271000-
LAKE MICHIGAN

STATION/POSITION TIME  TEMP    WIND        PRES    WAVE
                       AIR SEA DIR/SP/G            HT/PER
                 (UTC) (F)     (DEG/KT/KT) (MB)    (FT/S)
CHAMBERS ISLAND  0800   56     230/  9/ 19 1003.0F
N MID LAKE BUOY  0850   58 66  240/ 23/ 29 1001.0F   6/ 6
NORTHPORT PIER   0800   56     270/  5/ 18 1002.7F
KEWAUNEE LAKESHO 0800   56     240/  9/ 14 1004.9F
SHEBOYGAN LAKESH 0900   53     240/ 12/ 14 1006.3F
PORT WASHINGTON  0840   53     250/  8/ 10 1008.5F
ATWATER BUOY     0800   56 58  230/ 12/ 14 1008.9F
MILWAUKEE LAKESH 0810   56     240/ 10/ 12   N/A
S MID LAKE BUOY  0850   63 70  250/ 23/ 27 1007.8F   5/ 6
KENOSHA   LAKESH 0900   55     250/ 11/ 16 1009.1F
$$

TC  - TEMPERATURE IN CELSIUS
VSB - VISIBILITY IN STATUTE MILES
WCI - WIND CHILL INDEX
HX  - HEAT INDEX





USA.gov is the U.S. government's official web portal to all federal, state and local government web resources and services.